Location: Cargill Incorporated Elevator
(42.7294°N, 93.7333°W)
Time: 05:13:36
(UTC+00:00)

DMSP B5D1-3 - Pass Details

Date: 19 January 2026
Orbit: 759 x 772 km, 98.5° (Epoch: 15 February)

Event Time Altitude Azimuth Distance (km) Brightness Sun altitude
Rises 12:08:46 0° 165° (SSE) 3,210 8.1 -16.6°
Reaches altitude 10° 12:11:04 10° 166° (SSE) 2,287 7.3 -16.2°
Maximum altitude 12:16:06 88° 255° (WSW) 767 4.4 -15.3°
Drops below altitude 10° 12:21:11 10° 346° (NNW) 2,298 6.7 -14.4°
Sets 12:23:29 0° 347° (NNW) 3,228 7.5 -14.0°
